Hourly Data Report for November 16, 2018

VICTORIA UNIVERSITY CS
BRITISH COLUMBIA
Current Station Operator: ECCC - MSC

48°27'25.200" N
123°18'16.600" W
60.10 m
1018598
71783
WYJ

Download Data

Hourly Data (November 2018)
Hourly Data Report for November 16, 2018
TIME
LST
Temp Definition
°C
Dew Point Definition
°C
Rel Hum Definition
%
Precip. Amount Definition
mm

Wind Dir Definition
10's deg

Wind Spd Definition
km/h
Visibility Definition
km
Stn Press Definition
kPa
Hmdx Definition


Wind Chill Definition


Weather Definition


00:00 11.2 9.5 89 0.0 35 8   101.43     LegendNANA
01:00 10.0 9.2 95 0.0 36 10   101.52     LegendNANA
02:00 9.7 9.2 97 0.0 35 7   101.53     LegendNANA
03:00 9.7 9.1 96 0.0 34 4   101.57     LegendNANA
04:00 9.7 9.1 96 0.0 35 4   101.59     LegendNANA
05:00 9.9 8.5 91 0.0 1 7   101.61     LegendNANA
06:00 9.8 8.4 91 0.0 1 5   101.65     LegendNANA
07:00 9.5 7.5 88 0.0 1 6   101.65     LegendNANA
08:00 9.1 7.5 90 0.0 36 7   101.69     LegendNANA
09:00 9.7 8.0 89 0.0 35 8   101.72     LegendNANA
10:00 11.0 8.2 83 0.0 1 10   101.76     LegendNANA
11:00 11.2 7.9 80 0.0 1 13   101.77     LegendNANA
12:00 11.3 7.9 79 0.0 2 12   101.77     LegendNANA
13:00 11.3 7.7 78 0.0 1 12   101.73     LegendNANA
14:00 11.6 7.5 76 0.0 36 10   101.73     LegendNANA
15:00 11.2 6.9 75 0.0 35 10   101.74     LegendNANA
16:00 10.3 6.3 76 0.0 1 7   101.75     LegendNANA
17:00 8.9 6.6 86 0.0 2 3   101.75     LegendNANA
18:00 7.7 6.1 90 0.2 3 3   101.76     LegendNANA
19:00 8.1 5.9 86 0.0 1 4   101.80     LegendNANA
20:00 8.2 5.3 82 0.0 33 3   101.83     LegendNANA
21:00 8.4 5.3 81 0.0 34 7   101.87     LegendNANA
22:00 8.2 4.9 80 0.0 33 7   101.88     LegendNANA
23:00 8.1 4.9 80 0.0 34 6   101.93     LegendNANA

Notes on Data Quality.

Legend

  • E = Estimated
  • M = Missing
  • NA = Not Available*
  • [empty] = Indicates an unobserved value
Date modified: